AS014 Weather Reports


time (UTC)temp
C
wind
direction
speed
KPH
gust
KPH
rain 1hr
cm
rain 24hr
cm
rain mn
cm
humidity
%
barometer
mb
20260906220017 33 338 4.8 14.5 0.00 0.00 0.00 33 1015.3
20260906214518 33 90 3.2 9.7 0.00 0.00 0.00 32 1015.7
20260906213018 32 90 3.2 11.3 0.00 0.00 0.00 33 1015.6
20260906211558 32 45 3.2 11.3 0.00 0.00 0.00 35 1016.5
20260906210018 32 90 1.6 8.0 0.00 0.00 0.00 35 1016.7
20260906204517 32 0 4.8 17.7 0.00 0.00 0.00 36 1017.1
20260906203018 32 90 1.6 9.7 0.00 0.00 0.00 35 1017.1
20260906201518 31 90 6.4 16.1 0.00 0.00 0.00 36 1017.3
20260906200017 32 113 3.2 17.7 0.00 0.00 0.00 32 1017.5
20260906194518 31 113 4.8 16.1 0.00 0.00 0.00 36 1016.7
20260906193038 31 90 3.2 8.0 0.00 0.00 0.00 38 1017.0
20260906191517 30 90 4.8 11.3 0.00 0.00 0.00 40 1017.5
20260906190038 29 0 4.8 14.5 0.00 0.00 0.00 44 1017.7
20260906184517 29 0 3.2 9.7 0.00 0.00 0.00 42 1018.1
20260906183057 28 0 3.2 9.7 0.00 0.00 0.00 43 1018.4
20260906181517 27 338 4.8 16.1 0.00 0.00 0.00 44 1018.3
20260906180017 28 0 3.2 8.0 0.00 0.00 0.00 43 1018.9
20260906174517 27 0 1.6 6.4 0.00 0.00 0.00 46 1019.2
20260906173017 26 0 3.2 9.7 0.00 0.00 0.00 47 1019.0
20260906171517 25 338 3.2 11.3 0.00 0.00 0.00 51 1018.7
20260906170017 25 338 3.2 9.7 0.00 0.00 0.00 53 1019.0
20260906164517 24 338 3.2 9.7 0.00 0.00 0.00 54 1018.7
20260906163017 23 338 3.2 9.7 0.00 0.00 0.00 56 1018.7
20260906161517 22 315 3.2 9.7 0.00 0.00 0.00 58 1018.5
20260906160017 22 338 3.2 9.7 0.00 0.00 0.00 58 1018.2
20260906154517 22 338 4.8 11.3 0.00 0.00 0.00 58 1018.6
20260906153017 21 338 3.2 9.7 0.00 0.00 0.00 59 1018.6
20260906151517 21 315 4.8 11.3 0.00 0.00 0.00 59 1018.9
20260906150018 20 315 6.4 14.5 0.00 0.00 0.00 60 1018.7
20260906144537 20 338 6.4 14.5 0.00 0.00 0.00 60 1018.5
20260906143017 19 338 4.8 14.5 0.00 0.00 0.00 60 1018.6
20260906141517 19 315 1.6 8.0 0.00 0.00 0.00 60 1019.0
20260906140018 18 0.0 4.8 0.00 0.00 0.00 61 1018.6
20260906134517 17 0.0 0.0 0.00 0.00 0.00 62 1018.4
20260906133037 16 0.0 0.0 0.00 0.00 0.00 62 1018.0
20260906131517 16 0.0 0.0 0.00 0.00 0.00 63 1018.3
20260906130017 16 0.0 0.0 0.00 0.00 0.00 63 1018.1
20260906124517 16 0.0 0.0 0.00 0.00 0.00 63 1018.9
20260906123037 16 0.0 0.0 0.00 0.00 0.00 63 1019.1
20260906121517 16 0.0 0.0 0.00 0.00 0.00 62 1019.5
20260906120017 16 0.0 0.0 0.00 0.00 0.00 62 1019.7
20260906114517 17 0.0 0.0 0.00 0.00 0.00 62 1019.7
20260906113016 17 0.0 0.0 0.00 0.00 0.00 62 1019.9
20260906111516 17 0.0 4.8 0.00 0.00 0.00 62 1020.1
20260906110057 17 0.0 8.0 0.00 0.00 0.00 62 1019.8
20260906104516 17 0.0 0.0 0.00 0.00 0.00 62 1019.3
20260906103017 17 0.0 0.0 0.00 0.00 0.00 62 1019.3
20260906101516 17 0.0 0.0 0.00 0.00 0.00 61 1019.1
20260906100017 17 0.0 0.0 0.00 0.00 0.00 61 1019.3
20260906094516 18 0.0 1.6 0.00 0.00 0.00 61 1020.2
20260906093017 18 0.0 1.6 0.00 0.00 0.00 60 1020.2
20260906091517 18 0.0 0.0 0.00 0.00 0.00 59 1020.1
20260906090016 19 0.0 6.4 0.00 0.00 0.00 58 1020.1
20260906084517 20 0.0 4.8 0.00 0.00 0.00 56 1019.7
20260906083016 20 0.0 6.4 0.00 0.00 0.00 52 1020.0
20260906081517 20 0 1.6 9.7 0.00 0.00 0.00 51 1019.5
20260906080016 21 0.0 0.0 0.00 0.00 0.00 53 1019.7
20260906074517 21 0.0 8.0 0.00 0.00 0.00 51 1019.2
20260906073017 20 0.0 6.4 0.00 0.00 0.00 53 1019.3
20260906071516 20 0.0 0.0 0.00 0.00 0.00 56 1018.7
20260906070016 20 0.0 0.0 0.00 0.00 0.00 55 1019.1
20260906064516 21 0.0 0.0 0.00 0.00 0.00 53 1019.5
20260906063016 21 0.0 3.2 0.00 0.00 0.00 50 1019.7
20260906061516 22 0.0 8.0 0.00 0.00 0.00 47 1019.4
20260906060016 22 0.0 0.0 0.00 0.00 0.00 46 1019.2
20260906054519 22 0.0 0.0 0.00 0.00 0.00 46 1019.3
20260906053019 23 0.0 0.0 0.00 0.00 0.00 45 1020.0
20260906051518 23 0.0 0.0 0.00 0.00 0.00 43 1019.8
20260906050018 22 0.0 0.0 0.00 0.00 0.00 45 1020.1
20260906044538 21 0.0 0.0 0.00 0.00 0.00 47 1019.6
20260906043018 21 0.0 0.0 0.00 0.00 0.00 51 1018.2
20260906041518 21 0.0 0.0 0.00 0.00 0.00 49 1018.1
20260906040018 22 0.0 0.0 0.00 0.00 0.00 47 1018.1
20260906034518 22 0.0 0.0 0.00 0.00 0.00 45 1017.8
20260906033018 23 0.0 3.2 0.00 0.00 0.00 42 1018.0
20260906031518 23 0.0 4.8 0.00 0.00 0.00 40 1017.2
20260906030018 24 0.0 0.0 0.00 0.00 0.00 39 1016.6
20260906024518 25 0.0 3.2 0.00 0.00 0.00 37 1015.5
20260906023018 26 338 1.6 4.8 0.00 0.00 0.00 35 1015.9
20260906021518 26 338 3.2 8.0 0.00 0.00 0.00 34 1014.6
20260906020058 27 315 3.2 8.0 0.00 0.00 0.00 34 1014.9
20260906014518 27 315 4.8 11.3 0.00 0.00 0.00 33 1013.6
20260906013017 27 315 4.8 11.3 0.00 0.00 0.00 32 1013.7
20260906011518 28 315 4.8 11.3 0.00 0.00 0.00 31 1013.6
20260906010038 28 315 8.0 19.3 0.00 0.00 0.00 30 1013.9
20260906004517 30 315 4.8 16.1 0.00 0.00 0.00 28 1014.3
20260906003017 30 315 4.8 11.3 0.00 0.00 0.00 27 1014.2
20260906001518 32 293 3.2 14.5 0.00 0.00 0.00 26 1014.8
20260906000018 32 0.0 8.0 0.00 0.00 0.00 25 1015.0
20260905234518 33 158 1.6 4.8 0.00 0.00 0.00 23 1015.2
20260905233018 33 158 1.6 4.8 0.00 0.00 0.00 24 1015.3
20260905231537 33 113 1.6 9.7 0.00 0.00 0.00 24 1015.6
20260905230017 35 0.0 6.4 0.00 0.00 0.00 24 1015.9
20260905224517 35 135 1.6 6.4 0.00 0.00 0.00 22 1015.8
20260905223018 35 315 1.6 6.4 0.00 0.00 0.00 24 1015.8
20260905221517 34 293 3.2 8.0 0.00 0.00 0.00 23 1016.0